Weather History for Richmond Hanover County, VA

Change the Weather History Date:

Monday, November 25, 2013

  Actual Average Record
Temperature  
Mean Temperature 27 °F -  
Max Temperature 37 °F 55 °F 77 °F (1973)
Min Temperature 17 °F 32 °F 14 °F (1950)
Degree Days  
Heating Degree Days 38    
Moisture  
Dew Point 9 °F    
Average Humidity 48    
Maximum Humidity 81    
Minimum Humidity 28    
Precipitation  
Precipitation 0.00 in - - ()
Sea Level Pressure  
Sea Level Pressure 30.52 in    
Wind  
Wind Speed 3 mph (South)    
Max Wind Speed 10 mph    
Max Gust Speed -    
Visibility 10 miles    
Events      
Averages and records for this station are not official NWS values.
T = Trace of Precipitation, MM = Missing Value Source: NWS Daily Summary

Daily Weather History Graph

Daily Weather History Graph

Search for Another Location

Airport:

Trip Planner

Search our weather history database for the weather conditions in past years. The results will help you decide how hot, cold, wet, or windy it might be!

Date:

Astronomy

Nov. 25, 2013 Rise Set
Actual Time 7:00 AM EST 4:52 PM EST
Civil Twilight 6:31 AM EST 5:21 PM EST
Nautical Twilight 5:59 AM EST 5:53 PM EST
Astronomical Twilight 5:28 AM EST 6:25 PM EST
Moon No Moon Rise 12:20 PM EST (11/25)
Length of Visible Light 10h 49m
Length of Day
9h 52m
Waning Gibbous, 51% of the Moon is Illuminated
Nov 25
Waning Gibbous
Nov 25
Last Quarter
Dec 2
New
Dec 9
First Quarter
Dec 17
Full

Hourly Weather History & Observations

Time (EST) Temp. Windchill Dew Point Humidity Pressure Visibility Wind Dir Wind Speed Gust Speed Precip Events Conditions
12:54 AM 19.9 °F - 8.1 °F 60% 30.56 in 10.0 mi Calm Calm - N/A   Clear
1:54 AM 19.9 °F - 7.0 °F 57% 30.56 in 10.0 mi Calm Calm - N/A   Clear
2:54 AM 18.0 °F - 10.0 °F 71% 30.57 in 10.0 mi Calm Calm - N/A   Clear
3:54 AM 19.0 °F 13.9 °F 9.0 °F 65% 30.57 in 10.0 mi NNW 3.5 mph - N/A   Clear
4:54 AM 19.0 °F - 9.0 °F 65% 30.58 in 10.0 mi Calm Calm - N/A   Clear
5:54 AM 17.1 °F - 12.0 °F 81% 30.57 in 10.0 mi Calm Calm - N/A   Clear
6:54 AM 18.0 °F - 12.9 °F 81% 30.59 in 10.0 mi Calm Calm - N/A   Clear
7:54 AM 21.9 °F 17.2 °F 12.0 °F 66% 30.61 in 10.0 mi WSW 3.5 mph - N/A   Clear
8:54 AM 25.0 °F 20.7 °F 12.9 °F 60% 30.61 in 9.0 mi SSW 3.5 mph - N/A   Clear
9:54 AM 28.0 °F 24.2 °F 10.0 °F 47% 30.61 in 10.0 mi SSE 3.5 mph - N/A   Clear
10:54 AM 30.9 °F 24.3 °F 6.1 °F 35% 30.59 in 10.0 mi SSE 6.9 mph - N/A   Clear
11:54 AM 33.1 °F 26.1 °F 7.0 °F 34% 30.56 in 10.0 mi SE 8.1 mph - N/A   Clear
12:54 PM 34.0 °F 28.0 °F 7.0 °F 32% 30.53 in 10.0 mi SSE 6.9 mph - N/A   Clear
1:54 PM 36.0 °F 30.3 °F 6.1 °F 29% 30.51 in 10.0 mi SW 6.9 mph - N/A   Clear
2:54 PM 37.0 °F 31.0 °F 6.1 °F 28% 30.48 in 10.0 mi South 8.1 mph - N/A   Clear
3:54 PM 37.0 °F 29.8 °F 7.0 °F 29% 30.48 in 10.0 mi South 10.4 mph - N/A   Clear
4:54 PM 34.0 °F 28.8 °F 9.0 °F 35% 30.47 in 10.0 mi SSE 5.8 mph - N/A   Clear
5:54 PM 32.0 °F - 9.0 °F 38% 30.47 in 10.0 mi Calm Calm - N/A   Clear
6:54 PM 30.9 °F - 15.1 °F 52% 30.47 in 10.0 mi Calm Calm - N/A   Clear
7:54 PM 33.1 °F 30.0 °F 12.9 °F 43% 30.46 in 10.0 mi SSE 3.5 mph - N/A   Overcast
8:54 PM 34.0 °F 28.8 °F 12.0 °F 40% 30.43 in 10.0 mi SSE 5.8 mph - N/A   Scattered Clouds
9:54 PM 36.0 °F 29.0 °F 9.0 °F 33% 30.41 in 10.0 mi South 9.2 mph - N/A   Partly Cloudy
10:54 PM 37.0 °F 30.4 °F 9.0 °F 31% 30.41 in 10.0 mi SSW 9.2 mph - N/A   Clear
11:54 PM 37.0 °F 31.6 °F 9.0 °F 31% 30.40 in 10.0 mi South 6.9 mph - N/A   Clear